Tracking 19920 objects as of 15-Oct-2019
HD Live streaming from Space Station
objects crossing your sky now

EKRAN 7

Track EKRAN 7 now!
EKRAN 7 is classified as:


NORAD ID: 12564
Int'l Code: 1981-061A
Perigee: 35,772.7 km
Apogee: 35,824.7 km
Inclination: 11.9 °
Period: 1,436.4 minutes
Semi major axis: 42169 km
RCS: 3.9811 m2 (large)
Launch date: June 26, 1981
Source: Commonwealth of Independent States (former USSR) (CIS)
Launch site: TYURATAM MISSILE AND SPACE COMPLEX (TTMTR)
aabbcc
Your satellite tracking list
Your tracking list is empty




NASA's NSSDC Master Catalog

Two Line Element Set (TLE):
1 12564U 81061A   19287.83934278 -.00000302 +00000-0 +00000-0 0  9991
2 12564 011.9453 318.3227 0006162 018.6637 087.2766 01.00253987105079
Source of the keplerian elements: AFSPC